TimeEST,TemperatureF,Dew PointF,Humidity,Sea Level PressureIn,VisibilityMPH,Wind Direction,Wind SpeedMPH,Gust SpeedMPH,PrecipitationIn,Events,Conditions,WindDirDegrees,DateUTC
12:13 AM,49.1,49.1,100,30.01,0.8,Calm,Calm,-,0.04,Rain,Rain,0,2012-12-10 05:13:00
12:34 AM,49.3,49.3,100,30.00,1.8,Calm,Calm,-,0.06,Rain,Light Rain,0,2012-12-10 05:34:00
12:55 AM,49.5,49.5,100,29.99,3.0,Calm,Calm,-,0.07,,Overcast,0,2012-12-10 05:55:00
1:17 AM,50.0,50.0,100,29.98,3.0,Calm,Calm,-,N/A,,Overcast,0,2012-12-10 06:17:00
1:38 AM,49.6,49.6,100,29.98,3.0,Calm,Calm,-,N/A,,Overcast,0,2012-12-10 06:38:00
1:59 AM,50.0,50.0,100,29.97,3.0,Calm,Calm,-,N/A,,Overcast,0,2012-12-10 06:59:00
2:21 AM,50.9,50.9,100,29.96,3.0,Calm,Calm,-,N/A,,Overcast,0,2012-12-10 07:21:00
2:42 AM,51.8,51.8,100,29.96,3.0,SW,3.5,-,N/A,,Overcast,220,2012-12-10 07:42:00
3:03 AM,52.3,52.3,100,29.94,3.0,SSW,4.6,-,N/A,,Overcast,200,2012-12-10 08:03:00
3:25 AM,52.7,52.7,100,29.93,3.0,SSW,3.5,-,N/A,,Overcast,210,2012-12-10 08:25:00
3:46 AM,53.1,53.1,100,29.93,4.0,SSW,4.6,-,N/A,,Overcast,200,2012-12-10 08:46:00
4:07 AM,53.2,53.2,100,29.91,4.0,SSW,5.8,-,N/A,,Overcast,200,2012-12-10 09:07:00
4:28 AM,53.6,53.6,100,29.90,4.0,SSW,8.1,-,N/A,,Overcast,200,2012-12-10 09:28:00
4:50 AM,53.6,53.6,100,29.90,4.0,SW,8.1,-,N/A,,Overcast,220,2012-12-10 09:50:00
5:11 AM,53.6,53.6,100,29.88,2.5,SSW,9.2,-,N/A,,Overcast,200,2012-12-10 10:11:00
5:32 AM,53.6,53.6,100,29.89,1.8,SSW,6.9,-,N/A,,Overcast,210,2012-12-10 10:32:00
5:48 AM,53.6,53.6,100,29.88,1.5,SSW,8.1,-,N/A,,Overcast,200,2012-12-10 10:48:00
5:54 AM,53.6,53.6,100,29.88,1.5,SSW,5.8,-,N/A,,Overcast,210,2012-12-10 10:54:00
6:15 AM,53.6,53.6,100,29.88,1.5,SSW,5.8,-,N/A,,Overcast,200,2012-12-10 11:15:00
6:36 AM,54.1,54.1,100,29.87,1.5,SSW,8.1,-,N/A,,Overcast,200,2012-12-10 11:36:00
6:38 AM,54.1,54.1,100,29.87,1.5,SSW,6.9,-,N/A,,Overcast,200,2012-12-10 11:38:00
6:50 AM,53.6,53.6,100,29.87,1.8,South,8.1,-,N/A,,Overcast,190,2012-12-10 11:50:00
7:50 AM,55.4,55.4,100,29.85,0.5,South,6.9,-,N/A,,Overcast,190,2012-12-10 12:50:00
8:50 AM,57.2,57.2,100,29.83,3.0,SSW,9.2,-,N/A,Rain,Light Rain,200,2012-12-10 13:50:00
9:27 AM,57.2,57.2,100,29.83,0.2,SSW,9.2,-,N/A,Fog,Fog,210,2012-12-10 14:27:00
9:50 AM,59.0,59.0,100,29.82,0.5,SSW,9.2,-,N/A,Fog,Fog,210,2012-12-10 14:50:00
10:15 AM,60.8,60.8,100,29.80,5.0,SSW,11.5,-,N/A,,Overcast,200,2012-12-10 15:15:00
10:25 AM,60.8,60.8,100,29.80,4.0,SSW,12.7,-,N/A,,Overcast,210,2012-12-10 15:25:00
11:55 AM,62.6,62.6,100,29.74,5.0,SSW,9.2,16.1,N/A,,Mostly Cloudy,200,2012-12-10 16:55:00
12:55 PM,62.6,62.6,100,29.71,5.0,SSW,10.4,-,N/A,,Overcast,200,2012-12-10 17:55:00
1:53 PM,62.6,62.6,100,29.68,5.0,SSW,5.8,-,N/A,,Overcast,200,2012-12-10 18:53:00
2:55 PM,64.4,64.4,100,29.65,10.0,South,4.6,-,N/A,,Overcast,190,2012-12-10 19:55:00
3:37 PM,62.6,62.6,100,29.64,10.0,South,6.9,-,N/A,,Overcast,170,2012-12-10 20:37:00
3:51 PM,62.6,62.6,100,29.65,10.0,South,5.8,-,N/A,,Overcast,190,2012-12-10 20:51:00
4:55 PM,62.6,62.6,100,29.64,10.0,SSW,9.2,-,N/A,,Mostly Cloudy,210,2012-12-10 21:55:00
5:53 PM,62.6,62.6,100,29.66,10.0,SW,4.6,-,N/A,,Overcast,230,2012-12-10 22:53:00
6:53 PM,60.8,60.8,100,29.63,10.0,South,6.9,-,N/A,,Mostly Cloudy,190,2012-12-10 23:53:00
7:53 PM,59.0,59.0,100,29.64,10.0,SSW,5.8,-,N/A,,Mostly Cloudy,200,2012-12-11 00:53:00
8:53 PM,60.8,60.8,100,29.64,10.0,SW,8.1,-,N/A,,Mostly Cloudy,230,2012-12-11 01:53:00
9:50 PM,61.0,61.0,100,29.65,10.0,WSW,6.9,-,N/A,,Scattered Clouds,240,2012-12-11 02:50:00
10:11 PM,60.8,60.8,100,29.65,10.0,WSW,8.1,-,N/A,,Scattered Clouds,240,2012-12-11 03:11:00
10:32 PM,60.8,60.8,100,29.65,10.0,SW,4.6,-,N/A,,Mostly Cloudy,230,2012-12-11 03:32:00
10:53 PM,59.5,59.5,100,29.66,10.0,SW,4.6,-,N/A,,Mostly Cloudy,230,2012-12-11 03:53:00
11:15 PM,59.0,59.0,100,29.65,10.0,Calm,Calm,-,N/A,,Mostly Cloudy,0,2012-12-11 04:15:00
11:36 PM,57.7,57.7,100,29.66,10.0,SW,5.8,-,N/A,,Scattered Clouds,230,2012-12-11 04:36:00
11:57 PM,58.3,58.3,100,29.66,10.0,SW,4.6,-,N/A,,Clear,230,2012-12-11 04:57:00